{"data":{"norad_id":58891,"epoch":"2026-05-25T02:19:34.688928Z","epoch_age_seconds":62830,"freshness":"FRESH","line1":"1 58891U 24020R   26145.09692927  .00001250  00000+0  48128-4 0  9995","line2":"2 58891  53.1622 285.5406 0001061  92.4924 267.6200 15.34390727131515","mean_motion":15.34390727,"eccentricity":0.0001061,"inclination_deg":53.1622,"raan_deg":285.5406,"arg_perigee_deg":92.4924,"mean_anomaly_deg":267.62,"bstar":4.8128e-5,"rev_number":13151,"period_min":93.848325244734,"perigee_km":462.00498558235,"apogee_km":463.45661772986,"semimajor_km":6840.8678016561,"source":"CELESTRAK","updated_at":"2026-05-25T13:38:18.786712Z"}}